Flag for Germany Weather past 2 weeks in Magdeburg, Saxony-Anhalt, Germany

Now
66 °F

Overcast.


Feels Like: 66 °F
Forecast: 54 / 66 °F
Wind: 5 mph from Southeast

Location: Magdeburg

Current Time: May 3, 2015 at 4:07:04 PM

Latest Report: May 3, 2015 at 3:00 PM


Visibility: 28 mi

Pressure: 29.75 "Hg

Humidity: 55%

Dew point: 49 °F

Location of MagdeburgLocation

Historic Weather in Magdeburg — Graph

°F

Magdeburg temperature yesterday

Maximum temperature yesterday: 59 °F (at 6:00 PM)
Minimum temperature yesterday: 38 °F (at 3:00 AM)
Average temperature yesterday: 48 °F

Past Weeks' High & Low Weather Summary

 TemperatureHumidityPressure
High71 °F (Apr 25, 2:00 PM)97% (Apr 26, 6:00 AM)30.37 "Hg (Apr 26, 6:00 AM)
Low35 °F (Apr 19, 6:00 AM)23% (Apr 21, 2:00 PM)29.59 "Hg (Apr 27, 7:00 AM)
Average51 °F65%30.00 "Hg
* Reported Apr 18 2:00 PM — May 3 2:00 PM, Magdeburg, Weather by CustomWeather, © 2015

Note: Actual official high and low records may vary slightly from our data, if they occured in-between our weather recording intervals... More about our weather records

Advertising

Magdeburg weather history for previous 24 hours

 ConditionsComfort  
Time TempWeatherWind HumidityBarometerVisibility
2:00 PM
Sun, May 3
65 °FPartly sunny.6 mph47%29.76 "Hg28 mi
1:00 PM64 °FOvercast.5 mph47%29.78 "Hg25 mi
12:00 PM62 °FPartly sunny.6 mph43%29.79 "Hg22 mi
11:00 AM60 °FPartly sunny.5 mph47%29.81 "Hg22 mi
10:00 AM57 °FPartly sunny.2 mph50%29.84 "Hg22 mi
9:00 AM52 °FScattered clouds.2 mph58%29.84 "Hg22 mi
8:00 AM47 °FScattered clouds.2 mph62%29.85 "Hg25 mi
7:00 AM44 °FOvercast.1 mph70%29.85 "Hg22 mi
6:00 AM40 °FScattered clouds.1 mph77%29.85 "Hg31 mi
4:00 AM41 °FPassing clouds.1 mph82%29.88 "Hg19 mi
3:00 AM42 °FOvercast.1 mph77%29.88 "Hg22 mi
2:00 AM44 °FClear.1 mph71%29.90 "Hg25 mi
1:00 AM44 °FPassing clouds.1 mph72%29.91 "Hg22 mi
12:00 AM46 °FOvercast.1 mph66%29.91 "Hg22 mi
10:00 PM
Sat, May 2
47 °FPassing clouds.1 mph60%29.92 "Hg19 mi
9:00 PM51 °FPassing clouds.1 mph50%29.91 "Hg31 mi
8:00 PM55 °FPassing clouds.2 mph38%29.90 "Hg37 mi
7:00 PM58 °FPassing clouds.2 mph33%29.89 "Hg31 mi
6:00 PM59 °FPassing clouds.2 mph32%29.90 "Hg28 mi
4:00 PM59 °FPassing clouds.2 mph36%29.90 "Hg28 mi
Weather by CustomWeather, © 2015

See weather overviewHow to use our weather pages